2023-001AD (55036 NORAD) Tracking and Keplerian Element Data

This shows tracking and keplerian element data for the satellite.

Feedback or suggestion? Click here.




ElementValue
Catalog55036
Name2023-001AD
Epoch Orbit171
Epoch Day13.91454932
Epoch Year2023
RAAN75.8656
Inclination97.5035
Eccentricity0.001445
Argument of Perigee181.1383
Mean Anonmoly178.9818
Mean Motion15.13185164
Decay Rate0.00028978
L11 55036U 23001AD 23013.91454932 .00028978 00000+0 16275-2 0 9997
L22 55036 97.5035 75.8656 0014450 181.1383 178.9818 15.13185164 1712



Live tracking and technical data element details for 2023-001AD (NORAD 55036). 2023-001AD can be tracked NOW for your location showing map with azimuth and elevation plus other details from your city location.







IsCatalogInMostPopularTable: catalog: 55036, numindb: 3
Update: records affected: 1



GetName: 55036 2023-001AD

Hit Count: updated at: Tue, 07 Feb 2023 14:01:29 GMT